TimeEEST,TemperatureF,Dew PointF,Humidity,Sea Level PressureIn,VisibilityMPH,Wind Direction,Wind SpeedMPH,Gust SpeedMPH,PrecipitationIn,Events,Conditions,WindDirDegrees,DateUTC
7:50 AM,64.4,62.6,94,29.86,6.2,NE,5.8,-,N/A,,Mostly Cloudy,50,2012-10-14 04:50:00
8:20 AM,64.4,62.6,94,29.86,6.2,NE,5.8,-,N/A,,Mostly Cloudy,50,2012-10-14 05:20:00
8:50 AM,66.2,62.6,88,29.89,6.2,NE,6.9,-,N/A,,Mostly Cloudy,50,2012-10-14 05:50:00
9:20 AM,66.2,62.6,88,29.89,6.2,Variable,4.6,-,N/A,,Mostly Cloudy,0,2012-10-14 06:20:00
9:50 AM,69.8,66.2,88,29.89,6.2,NNE,5.8,-,N/A,,Mostly Cloudy,30,2012-10-14 06:50:00
10:20 AM,71.6,66.2,83,29.89,6.2,NNE,5.8,-,N/A,,Mostly Cloudy,30,2012-10-14 07:20:00
10:50 AM,73.4,68.0,83,29.89,6.2,ENE,4.6,-,N/A,,Mostly Cloudy,60,2012-10-14 07:50:00
11:20 AM,73.4,68.0,83,29.89,6.2,Calm,Calm,-,N/A,,Mostly Cloudy,0,2012-10-14 08:20:00
11:50 AM,73.4,68.0,83,29.89,6.2,Calm,Calm,-,N/A,,Mostly Cloudy,0,2012-10-14 08:50:00
12:20 PM,75.2,68.0,78,29.89,6.2,Calm,Calm,-,N/A,,Scattered Clouds,0,2012-10-14 09:20:00
12:50 PM,77.0,66.2,69,29.86,6.2,SSW,6.9,-,N/A,,Scattered Clouds,210,2012-10-14 09:50:00
1:20 PM,78.8,66.2,65,29.86,6.2,SW,5.8,-,N/A,,Partly Cloudy,230,2012-10-14 10:20:00
1:50 PM,78.8,66.2,65,29.86,6.2,WSW,5.8,-,N/A,,Partly Cloudy,240,2012-10-14 10:50:00
2:20 PM,78.8,66.2,65,29.86,6.2,SW,6.9,-,N/A,,Scattered Clouds,230,2012-10-14 11:20:00
2:50 PM,78.8,66.2,65,29.86,6.2,WSW,6.9,-,N/A,,Scattered Clouds,240,2012-10-14 11:50:00
3:20 PM,78.8,66.2,65,29.86,6.2,SW,8.1,-,N/A,,Scattered Clouds,220,2012-10-14 12:20:00
3:50 PM,78.8,68.0,69,29.86,6.2,SW,9.2,-,N/A,,Scattered Clouds,220,2012-10-14 12:50:00
4:20 PM,78.8,68.0,69,29.86,6.2,West,8.1,-,N/A,,Mostly Cloudy,270,2012-10-14 13:20:00
4:50 PM,77.0,66.2,69,29.86,6.2,WSW,6.9,-,N/A,,Mostly Cloudy,240,2012-10-14 13:50:00
5:20 PM,75.2,66.2,73,29.83,6.2,WSW,6.9,-,N/A,,Mostly Cloudy,250,2012-10-14 14:20:00
5:50 PM,75.2,66.2,73,29.83,6.2,WNW,6.9,-,N/A,,Mostly Cloudy,290,2012-10-14 14:50:00
6:20 PM,75.2,66.2,73,29.83,6.2,West,4.6,-,N/A,,Mostly Cloudy,270,2012-10-14 15:20:00
6:50 PM,71.6,64.4,78,29.86,6.2,West,5.8,-,N/A,,Mostly Cloudy,280,2012-10-14 15:50:00
7:20 PM,71.6,64.4,78,29.86,6.2,Calm,Calm,-,N/A,,Scattered Clouds,0,2012-10-14 16:20:00
7:50 PM,69.8,64.4,83,29.86,6.2,Calm,Calm,-,N/A,,Partly Cloudy,0,2012-10-14 16:50:00
8:20 PM,69.8,64.4,83,29.86,6.2,Calm,Calm,-,N/A,,Partly Cloudy,0,2012-10-14 17:20:00
8:50 PM,68.0,62.6,83,29.86,6.2,Calm,Calm,-,N/A,,Partly Cloudy,0,2012-10-14 17:50:00
9:20 PM,68.0,62.6,83,29.89,6.2,East,4.6,-,N/A,,Partly Cloudy,100,2012-10-14 18:20:00
9:50 PM,66.2,62.6,88,29.89,6.2,NE,4.6,-,N/A,,Scattered Clouds,50,2012-10-14 18:50:00